"Pseudo-MPEC" for P21XIn6

Created 2024 Sep 11 2:22:15 UT using Find_Orb

Click here for an explanation of pseudo-MPECs

 
 Astrometry: 
     P21XIn6* C2024 09 01.35184622 42 19.218+15 56 11.20   ~91C7 22.61wXNEOCPF52
     P21XIn6  C2024 09 01.36508622 42 17.785+15 56 16.94   ~91C7 22.98wXNEOCPF52
     P21XIn6  C2024 09 01.37830422 42 16.316+15 56 22.24   ~91C7 22.58wXNEOCPF52
     P21XIn6  C2024 09 01.52531922 42 00.117+15 57 24.48   ~91K7 22.34GVNEOCPF52
     P21XIn6  C2024 09 01.52614922 42 00.029+15 57 24.80   ~91K7 22.62GVNEOCPF52

Station data:
(F52) Pan-STARRS 2, Haleakala  (N20.707382 W156.255910)  US/Hawaii.
   Observers J. Bulger, T. Dukes, T. Lowe, A. Schultz, M. Willman. Measurers
   K. Chambers, S. Chastel, T. de Boer, L. Denneau, J. Fairlamb, H.
   Flewelling, M. Huber, C.-C. Lin, E. Magnier, Y. Ramanjooloo, R. Wainscoat,
   R. Weryk. 1.8-m Ritchey-Chrétien + CCD.

Orbital elements:  P21XIn6
   Perihelion 2024 Mar 28.81708 +/- 212 TT = 19:36:36 (JD 2460398.31708)
Epoch 2024 Sep  1.0 TT = JDT 2460554.5   Earth MOID: 0.6515   Ju: 0.9825
M  13.08154295 +/- 56               (J2000 ecliptic)             AutoNEOCP
n   0.08375783 +/- 0.14             Peri.  296.20967 +/- 100
a   5.17351548 +/- 5.78             Node   328.41072 +/- 30
e   0.7247946 +/- 0.269             Incl.   39.55251 +/- 26
P  11.76735                H 19.59  G  0.15   U 11.4  SR
q 1.42377929 +/- 0.772    Q 8.92325168 +/- 32.9
From 5 observations 2024 Sept. 1 (4.2 hr); mean residual 0".12
Residuals in arcseconds: 
240901 F52  .17-  .08+    240901 F52  .00   .24-    240901 F52  .02+  .00     
240901 F52  .18+  .13+    240901 F52  .03-  .03+    

Ephemerides (geocentric):
Date (UTC) HH   RA             Dec           delta  r     elong  mag " sig PA
---- --------  ------------   ------------  ------ ------ -----  --- --------
2024 09 11 02  22 25 56.034   +16 46 40.77  1.4080 2.3597 155.1 22.9 1269  74
2024 09 11 03  22 25 52.162   +16 46 49.35  1.4084 2.3600 155.1 22.9 1279  74
2024 09 11 04  22 25 48.293   +16 46 57.89  1.4089 2.3603 155.1 22.9 1290  74
2024 09 11 05  22 25 44.427   +16 47 06.41  1.4093 2.3607 155.1 22.9 1300  74
2024 09 11 06  22 25 40.565   +16 47 14.89  1.4097 2.3610 155.1 22.9 1311  75
2024 09 11 07  22 25 36.706   +16 47 23.33  1.4101 2.3613 155.1 22.9 1321  75
2024 09 11 08  22 25 32.850   +16 47 31.75  1.4105 2.3617 155.0 22.9 1332  75
2024 09 11 09  22 25 28.997   +16 47 40.12  1.4110 2.3620 155.0 22.9 1342  75
2024 09 11 10  22 25 25.148   +16 47 48.47  1.4114 2.3623 155.0 22.9 1353  75
2024 09 11 11  22 25 21.302   +16 47 56.78  1.4118 2.3627 155.0 22.9 1364  75
2024 09 11 12  22 25 17.459   +16 48 05.06  1.4122 2.3630 155.0 22.9 1375  75
2024 09 11 13  22 25 13.620   +16 48 13.30  1.4126 2.3633 155.0 22.9 1385  75
2024 09 11 14  22 25 09.784   +16 48 21.52  1.4131 2.3637 154.9 22.9 1396  75
2024 09 11 15  22 25 05.952   +16 48 29.69  1.4135 2.3640 154.9 22.9 1407  75
2024 09 11 16  22 25 02.122   +16 48 37.84  1.4139 2.3643 154.9 22.9 1418  75
2024 09 11 17  22 24 58.297   +16 48 45.95  1.4143 2.3646 154.9 22.9 1429  75
2024 09 11 18  22 24 54.474   +16 48 54.03  1.4148 2.3650 154.9 22.9 1440  75
2024 09 11 19  22 24 50.655   +16 49 02.08  1.4152 2.3653 154.9 22.9 1451  75
2024 09 11 20  22 24 46.839   +16 49 10.09  1.4156 2.3656 154.8 22.9 1462  75
2024 09 11 21  22 24 43.027   +16 49 18.07  1.4160 2.3660 154.8 22.9 1474  75
2024 09 11 22  22 24 39.218   +16 49 26.02  1.4165 2.3663 154.8 22.9 1485  75
2024 09 11 23  22 24 35.412   +16 49 33.93  1.4169 2.3666 154.8 22.9 1496  75
2024 09 12 00  22 24 31.610   +16 49 41.81  1.4173 2.3670 154.8 22.9 1507  75
2024 09 12 01  22 24 27.811   +16 49 49.66  1.4178 2.3673 154.7 22.9 1519  75
2024 09 12 02  22 24 24.015   +16 49 57.48  1.4182 2.3676 154.7 22.9 1530  75
2024 09 12 03  22 24 20.223   +16 50 05.26  1.4186 2.3680 154.7 22.9 1542  75
2024 09 12 04  22 24 16.434   +16 50 13.01  1.4190 2.3683 154.7 22.9 1553  75
2024 09 12 05  22 24 12.649   +16 50 20.73  1.4195 2.3686 154.7 22.9 1565  75
2024 09 12 06  22 24 08.867   +16 50 28.42  1.4199 2.3689 154.7 22.9 1576  75
2024 09 12 07  22 24 05.089   +16 50 36.07  1.4203 2.3693 154.6 22.9 1588  75
2024 09 12 08  22 24 01.313   +16 50 43.69  1.4208 2.3696 154.6 22.9 1600  76
2024 09 12 09  22 23 57.542   +16 50 51.28  1.4212 2.3699 154.6 22.9 1612  76
2024 09 12 10  22 23 53.773   +16 50 58.83  1.4216 2.3703 154.6 22.9 1623  76
2024 09 12 11  22 23 50.009   +16 51 06.36  1.4221 2.3706 154.6 22.9 1635  76
2024 09 12 12  22 23 46.247   +16 51 13.85  1.4225 2.3709 154.5 22.9 1647  76
2024 09 12 13  22 23 42.489   +16 51 21.31  1.4229 2.3713 154.5 22.9 1659  76
2024 09 12 14  22 23 38.735   +16 51 28.74  1.4234 2.3716 154.5 22.9 1671  76
2024 09 12 15  22 23 34.984   +16 51 36.13  1.4238 2.3719 154.5 22.9 1683  76
2024 09 12 16  22 23 31.236   +16 51 43.50  1.4242 2.3723 154.5 22.9 1695  76
2024 09 12 17  22 23 27.492   +16 51 50.83  1.4247 2.3726 154.5 22.9 1708  76
2024 09 12 18  22 23 23.751   +16 51 58.13  1.4251 2.3729 154.4 22.9 1720  76
2024 09 12 19  22 23 20.014   +16 52 05.40  1.4255 2.3733 154.4 22.9 1732  76
2024 09 12 20  22 23 16.280   +16 52 12.63  1.4260 2.3736 154.4 22.9 1744  76
2024 09 12 21  22 23 12.549   +16 52 19.84  1.4264 2.3739 154.4 22.9 1757  76
2024 09 12 22  22 23 08.822   +16 52 27.01  1.4269 2.3742 154.4 22.9 1769  76
2024 09 12 23  22 23 05.099   +16 52 34.15  1.4273 2.3746 154.3 22.9 1782  76
2024 09 13 00  22 23 01.379   +16 52 41.26  1.4277 2.3749 154.3 22.9 1794  76
2024 09 13 01  22 22 57.662   +16 52 48.34  1.4282 2.3752 154.3 22.9 1807  76